Valparaiso, FL

1:33 AM CST on November 24, 2017 (GMT -0600)
Eglin Air Force Base

Weather History for KVPS - March, 2013

Change the Weather History Date:

Sunday, March 24, 2013

  Actual Average Record
Temperature  
Mean Temperature 68 °F -  
Max Temperature 81 °F 72 °F 83 °F (2011)
Min Temperature 52 °F 46 °F 26 °F (1968)
Cooling Degree Days 3    
Growing Degree Days 18 (Base 50)    
Moisture  
Dew Point 61 °F    
Average Humidity 76    
Maximum Humidity 100    
Minimum Humidity 41    
Precipitation  
Precipitation 0.06 in - - ()
Sea Level Pressure  
Sea Level Pressure 29.65 in    
Wind  
Wind Speed 12 mph (WSW)    
Max Wind Speed 17 mph    
Max Gust Speed 26 mph    
Visibility 7 miles    
Events Rain    
Averages and records for this station are not official NWS values.
T = Trace of Precipitation, MM = Missing Value Source: NWS Daily Summary

Daily Weather History Graph

Daily Weather History Graph

Search for Another Location

Airport or City:

Trip Planner

Search our weather history database for the weather conditions in past years. The results will help you decide how hot, cold, wet, or windy it might be!

Date:

Astronomy

Mar. 24, 2013 Rise Set
Actual Time 6:44 AM CDT 7:00 PM CDT
Civil Twilight 6:20 AM CDT 7:24 PM CDT
Nautical Twilight 5:52 AM CDT 7:52 PM CDT
Astronomical Twilight 5:24 AM CDT 8:20 PM CDT
Moon 4:36 PM CDT 4:44 AM CDT
Length of Visible Light 13h 03m
Length of Day
12h 15m
Waxing Gibbous, 92% of the Moon is Illuminated
Mar 24
Waxing Gibbous
Mar 27
Full
Apr 2
Last Quarter
Apr 10
New
Apr 18
First Quarter

Hourly Weather History & Observations

Time (CDT) Temp. Heat Index Dew Point Humidity Pressure Visibility Wind Dir Wind Speed Gust Speed Precip Events Conditions
12:27 AM 68.0 °F - 68.0 °F 100% 29.62 in 5.0 mi SSE 12.7 mph - N/A   Overcast
12:55 AM 69.6 °F - 69.6 °F 100% 29.64 in 4.0 mi South 13.8 mph - 0.00 in   Overcast
1:22 AM 69.8 °F - 69.8 °F 100% 29.60 in 3.0 mi South 11.5 mph - N/A Rain Light Rain
1:47 AM 69.8 °F - 69.8 °F 100% 29.60 in 3.0 mi South 12.7 mph - N/A   Overcast
1:55 AM 68.9 °F - 68.7 °F 99% 29.61 in 3.0 mi SSW 12.7 mph - 0.00 in Rain Light Rain
2:55 AM 71.2 °F - 71.2 °F 100% 29.61 in 4.0 mi SW 11.5 mph 21.9 mph 0.04 in Rain Light Rain
3:55 AM 70.7 °F - 70.3 °F 99% 29.58 in 4.0 mi SW 13.8 mph 21.9 mph 0.02 in   Overcast
4:55 AM 70.7 °F - 69.8 °F 97% 29.58 in 4.0 mi WSW 12.7 mph 20.7 mph N/A   Overcast
5:55 AM 70.0 °F - 69.1 °F 97% 29.58 in 5.0 mi WSW 10.4 mph 20.7 mph N/A   Overcast
6:37 AM 69.8 °F - 68.0 °F 94% 29.57 in 3.0 mi West 13.8 mph - N/A   Overcast
6:55 AM 69.4 °F - 68.2 °F 96% 29.58 in 3.0 mi West 11.5 mph - N/A   Overcast
7:15 AM 69.8 °F - 68.0 °F 94% 29.58 in 3.0 mi West 10.4 mph - N/A   Overcast
7:55 AM 70.2 °F - 68.0 °F 93% 29.61 in 4.0 mi West 13.8 mph - N/A   Mostly Cloudy
8:55 AM 72.1 °F - 64.8 °F 78% 29.64 in 10.0 mi Variable 6.9 mph - N/A   Scattered Clouds
9:55 AM 74.5 °F - 62.4 °F 66% 29.66 in 10.0 mi West 8.1 mph - N/A   Clear
10:55 AM 77.9 °F - 61.0 °F 56% 29.67 in 10.0 mi West 8.1 mph - N/A   Clear
11:55 AM 80.1 °F 80.4 °F 56.7 °F 45% 29.67 in 10.0 mi NW 10.4 mph 18.4 mph N/A   Partly Cloudy
12:55 PM 77.5 °F - 63.5 °F 62% 29.64 in 10.0 mi SSW 15.0 mph 18.4 mph N/A   Clear
1:55 PM 75.4 °F - 63.9 °F 67% 29.64 in 10.0 mi SW 17.3 mph 21.9 mph N/A   Clear
2:55 PM 76.3 °F - 63.3 °F 64% 29.64 in 10.0 mi WSW 16.1 mph 21.9 mph N/A   Partly Cloudy
3:55 PM 76.6 °F - 63.5 °F 64% 29.62 in 10.0 mi SW 13.8 mph 20.7 mph N/A   Partly Cloudy
4:55 PM 74.3 °F - 63.3 °F 68% 29.61 in 10.0 mi SW 12.7 mph 20.7 mph N/A   Partly Cloudy
5:55 PM 72.7 °F - 62.6 °F 71% 29.62 in 10.0 mi SW 11.5 mph - N/A   Partly Cloudy
6:55 PM 70.7 °F - 57.7 °F 63% 29.66 in 10.0 mi NW 13.8 mph 24.2 mph N/A   Partly Cloudy
7:55 PM 65.8 °F - 50.9 °F 58% 29.73 in 10.0 mi NW 16.1 mph 26.5 mph N/A   Clear
8:55 PM 62.4 °F - 42.3 °F 48% 29.78 in 10.0 mi NW 6.9 mph 21.9 mph N/A   Clear
9:55 PM 59.9 °F - 36.0 °F 41% 29.83 in 10.0 mi NNW 6.9 mph - N/A   Clear
10:55 PM 56.3 °F - 32.7 °F 41% 29.86 in 10.0 mi NW 11.5 mph - N/A   Clear
11:55 PM 52.3 °F - 34.0 °F 50% 29.89 in 10.0 mi NW 12.7 mph 23.0 mph N/A   Clear